User: anonymous   Login
Location: Unspecified
(0.0000°N, 0.0000°E)
Time: 18:07:46
(UTC+00:00)
Language:

STARLINK-31214 - Orbit

View from above orbital plane
View from above orbital plane
View from above satellite
View from above satellite

Ground track
Ground track

The orbit is defined by the following mean orbital elements,

1 58871U          26145.44351001 +.00000000 +00000-0 +32343-3 0 00006
2 58871  42.9993 175.2084 0001464 270.6279  89.4405 15.27591481    05
Epoch (UTC): 25 May 2026 10:38:39
Eccentricity: 0.0001464
inclination: 42.9993°
perigee height: 482 km
apogee height: 484 km
right ascension of ascending node: 175.2084°
argument of perigee: 270.6279°
revolutions per day: 15.27591481
mean anomaly at epoch: 89.4405°

The dashed part of the orbit path shows where the satellite is in the earth's shadow,  

DLR